Home > Weather > Zoetermeer > Past weeks

Flag for Netherlands Weather for the Past 2 Weeks in Zoetermeer, Netherlands

Now
48 °F

Cool.


Feels Like: 45 °F
Forecast: 46 / 64 °F
Wind: 8 mph from Southeast

Location: Rotterdam Zestienhoven Airport

Current Time: May 5, 2016 at 1:25:31 AM

Latest Report: May 5, 2016 at 12:55 AM


Visibility: N/A

Pressure: 30.30 "Hg

Humidity: 66%

Dew Point: 37 °F

Location of ZoetermeerLocation

Historic Weather in Zoetermeer — Graph

°F

Zoetermeer Temperature Yesterday

Maximum temperature yesterday: 61 °F (at 1:55 PM)
Minimum temperature yesterday: 41 °F (at 1:55 AM)
Average temperature yesterday: 52 °F

High & Low Weather Summary for the Past Weeks

 TemperatureHumidityPressure
High61 °F (Apr 21, 3:55 PM)100% (Apr 20, 1:55 AM)30.48 "Hg (Apr 20, 1:55 AM)
Low34 °F (Apr 25, 2:25 AM)42% (May 2, 12:25 PM)29.47 "Hg (Apr 26, 5:55 AM)
Average46 °F74%30.07 "Hg
* Reported Apr 19 10:25 PM — May 4 10:55 PM, Zoetermeer, Weather by CustomWeather, © 2016

Note: Actual official high and low records may vary slightly from our data, if they occured in-between our weather recording intervals... More about our weather records

Advertising

Zoetermeer Weather History for the Previous 24 Hours

Scroll right to see more
 ConditionsComfort  
Time TempWeatherWind HumidityBarometerVisibility
10:55 PM
Wed, May 4
52 °FCool.6 mph58%30.33 "HgN/A
10:25 PM54 °FCool.7 mph54%30.33 "HgN/A
9:55 PM52 °FClear.7 mph62%30.30 "HgN/A
9:25 PM54 °FClear.7 mph54%30.30 "HgN/A
8:55 PM55 °FRefreshingly cool.7 mph51%30.33 "HgN/A
8:25 PM57 °FRefreshingly cool.7 mph44%30.33 "HgN/A
7:55 PM57 °FClear.7 mph48%30.33 "HgN/A
7:25 PM57 °FClear.10 mph48%30.33 "HgN/A
6:55 PM59 °FClear.7 mph42%30.33 "HgN/A
6:25 PM57 °FClear.9 mph51%30.33 "HgN/A
5:55 PM61 °FClear.5 mph45%30.33 "HgN/A
5:25 PM61 °FClear.7 mph45%30.33 "HgN/A
4:55 PM59 °FClear.5 mph48%30.36 "HgN/A
4:25 PM59 °FClear.6 mph48%30.36 "HgN/A
3:55 PM59 °FClear.5 mph51%30.36 "HgN/A
3:25 PM57 °FClear.7 mph51%30.36 "HgN/A
2:55 PM59 °FClear.2 mph48%30.36 "HgN/A
2:25 PM61 °FClear.3 mph48%30.39 "HgN/A
1:55 PM61 °FClear.6 mph48%30.39 "HgN/A
1:25 PM59 °FClear.7 mph51%30.39 "HgN/A
12:55 PM57 °FPassing clouds.7 mph51%30.39 "HgN/A
12:25 PM57 °FClear.7 mph51%30.39 "HgN/A
11:55 AM57 °FClear.9 mph55%30.39 "HgN/A
11:25 AM55 °FClear.9 mph59%30.39 "HgN/A
10:55 AM55 °FRefreshingly cool.9 mph55%30.39 "HgN/A
10:25 AM55 °FClear.9 mph59%30.39 "HgN/A
9:55 AM54 °FClear.9 mph63%30.39 "HgN/A
9:25 AM52 °FCool.8 mph67%30.39 "HgN/A
8:55 AM52 °FCool.8 mph72%30.39 "HgN/A
8:25 AM50 °FClear.5 mph71%30.39 "HgN/A
7:55 AM48 °FCool.5 mph82%30.39 "HgN/A
7:25 AM46 °FCool.5 mph82%30.39 "HgN/A
6:55 AM41 °FClear.3 mph93%30.36 "HgN/A
6:25 AM41 °FQuite cool.2 mph93%30.36 "HgN/A
5:55 AM41 °FQuite cool.3 mph93%30.36 "HgN/A
5:25 AM41 °FClear.3 mph93%30.36 "HgN/A
4:55 AM41 °FClear.2 mph93%30.36 "HgN/A
4:25 AM41 °FQuite cool.1 mph93%30.36 "HgN/A
3:55 AM41 °FClear.5 mph100%30.36 "HgN/A
3:25 AM41 °FClear.5 mph93%30.36 "HgN/A
2:55 AM41 °FClear.1 mph100%30.36 "HgN/A
2:25 AM41 °FQuite cool.1 mph100%30.36 "HgN/A
1:55 AM41 °FQuite cool.3 mph100%30.36 "HgN/A
Weather by CustomWeather, © 2016

See weather overviewHow to use our weather pages